Theta_e
327 327 327 327 326 325 324 323 322 321 319 319 321 320 320 320 320 321 321 322 322 322 322 323 325 323 312 300 302 312 322 320 311 306 302 299 296 294 291 293 294 290 292 295 297 296 295
325 326 326 327 327 325 324 324 323 323 321 319 320 319 320 320 320 320 321 321 322 322 322 323 325 322 307 294 311 311 310 309 306 303 300 300 297 297 295 293 292 294 295 294 296 295 295
321 322 323 324 326 326 324 324 324 324 322 321 319 318 318 320 320 320 320 321 321 321 322 323 325 315 302 300 310 307 307 305 305 304 301 301 301 297 296 293 296 294 290 292 292 295 294
319 319 320 322 323 323 325 324 324 324 322 321 320 319 318 318 319 319 320 320 320 321 321 323 324 307 297 309 310 307 305 303 305 305 304 303 302 300 297 296 294 290 289 287 291 294 293
316 318 319 319 321 322 322 324 325 324 322 320 319 318 318 318 318 319 319 320 319 320 322 323 308 303 295 312 308 309 304 302 303 302 303 306 301 295 294 290 287 287 284 285 290 294 292
314 315 316 318 318 318 321 321 321 323 322 321 319 318 318 318 317 317 319 320 319 319 317 315 310 294 299 299 305 306 304 304 301 299 298 298 294 291 288 288 283 285 284 285 286 291 290
312 312 313 314 316 316 316 318 320 321 321 321 320 319 318 318 318 318 315 308 298 296 304 294 295 293 299 302 305 303 304 302 300 297 291 293 289 287 290 290 289 288 286 286 288 292 290
311 311 310 311 313 315 315 315 316 318 319 319 320 320 319 318 318 319 312 302 298 302 294 303 303 303 303 303 298 301 304 298 295 291 292 290 287 292 292 291 289 287 286 286 289 291 290
308 308 308 310 310 311 313 314 315 315 315 318 318 320 319 318 318 315 309 306 310 307 293 296 303 302 302 302 298 299 301 297 293 291 291 289 292 294 293 290 289 288 286 286 288 289 288
306 307 305 307 308 309 311 312 314 314 314 314 317 318 319 318 311 311 306 312 313 306 285 288 295 301 300 301 296 302 302 298 293 292 291 291 294 293 291 290 291 286 291 290 288 286 283
306 306 306 305 306 308 309 310 312 314 314 313 313 315 319 317 311 308 310 315 313 300 282 292 296 303 299 297 295 296 299 297 292 292 292 290 291 291 290 291 293 289 291 289 287 285 282
307 307 307 305 305 305 307 308 309 311 313 312 312 313 315 315 314 314 316 315 310 290 280 287 296 294 294 294 293 294 296 297 296 292 291 290 292 293 293 292 293 292 290 288 286 284 279
306 307 307 308 307 306 305 305 307 308 310 312 312 312 310 317 309 316 317 306 287 282 292 288 291 293 292 290 290 291 291 290 289 286 286 288 289 291 293 290 291 290 287 280 278 277 279
304 305 306 307 307 306 306 304 304 306 307 310 311 310 308 314 317 317 310 294 281 288 288 292 291 292 290 292 290 290 289 287 291 288 285 285 282 290 292 292 290 288 287 281 275 275 278
303 304 305 305 306 307 307 306 305 305 307 308 309 303 307 311 317 316 301 285 287 288 291 291 291 287 287 290 290 288 287 287 291 291 287 284 284 289 290 291 294 287 284 289 283 271 275
301 303 303 304 304 305 306 306 306 306 306 307 301 300 300 313 316 310 295 291 293 294 293 294 290 292 287 288 289 286 286 289 290 293 293 290 283 287 288 291 290 289 291 283 281 273 271
300 301 302 303 303 303 304 306 306 306 305 306 299 296 301 313 313 302 291 289 292 294 296 292 292 291 289 288 289 285 288 290 291 290 295 292 288 283 287 286 286 286 285 285 286 282 277
300 300 300 302 302 302 304 303 305 305 305 301 293 289 301 313 294 296 291 296 295 293 297 294 294 294 290 291 289 288 288 290 294 293 289 292 290 281 284 287 288 286 286 288 281 279 280
300 301 301 301 301 301 301 303 303 305 305 294 287 289 300 307 287 288 293 294 297 294 295 293 293 293 293 293 290 291 289 293 294 293 291 294 288 276 281 285 285 285 287 290 288 283 283
300 300 299 300 300 301 301 302 302 303 305 297 287 282 289 293 295 291 289 289 291 299 296 296 294 296 294 292 295 289 289 292 294 294 297 297 290 285 284 284 286 283 285 288 288 283 284
301 300 299 299 299 300 301 301 302 302 304 297 288 283 286 285 286 289 291 292 289 290 298 297 294 294 293 290 291 290 291 291 292 295 295 295 288 289 291 291 287 285 285 287 287 289 285
300 300 300 300 299 299 300 301 302 301 303 294 286 282 286 286 287 289 287 288 288 290 292 293 292 294 294 292 293 291 293 292 292 292 292 294 287 289 287 290 290 286 286 287 288 290 290
300 300 300 300 299 299 299 299 300 301 300 291 292 289 288 284 284 284 286 288 287 291 294 295 295 294 293 295 298 299 298 299 297 295 291 291 289 286 284 288 288 283 288 289 288 290 290
299 300 300 300 299 299 299 299 300 300 300 293 291 290 284 279 284 283 286 287 287 289 289 293 295 292 295 301 300 298 296 295 295 296 297 289 289 288 285 286 279 289 295 294 292 292 292
299 299 299 299 299 299 299 299 299 300 300 294 294 290 285 280 282 282 285 286 287 291 289 289 291 295 298 295 289 288 288 289 290 293 295 297 291 287 284 284 288 288 289 288 288 290 296
299 299 298 298 298 298 298 298 299 299 299 296 293 294 287 282 281 285 283 285 284 285 285 287 286 288 294 288 284 282 283 286 285 287 294 294 295 289 283 282 280 289 291 294 292 287 296
298 298 298 298 298 298 298 298 298 298 299 295 292 294 288 283 286 285 284 283 286 283 283 284 286 287 288 285 282 283 283 286 282 284 285 287 288 285 286 284 285 286 283 291 285 286 281
297 297 297 297 297 298 298 298 298 297 297 296 293 295 288 284 285 287 289 284 286 286 284 281 284 285 285 284 283 284 284 285 285 286 285 286 285 285 286 283 282 283 286 287 285 281 281
297 296 296 296 297 297 298 298 297 297 297 297 290 295 294 285 286 290 291 291 292 291 287 283 282 279 287 285 285 285 284 284 286 281 283 285 288 286 286 286 284 283 283 283 282 279 280
Wind_Speed
15 4 7 8 8 8 8 8 8 6 5 4 2 2 3 5 7 7 6 7 9 10 12 13 16 18 3 2 1 1 2 3 3 2 3 2 3 3 4 3 2 2 1 0 1 1 1
15 12 10 8 9 8 8 8 8 9 9 7 5 3 2 4 6 8 10 9 9 11 13 14 14 15 2 1 1 2 3 2 3 2 2 3 3 2 4 2 3 1 1 2 3 2 2
13 13 15 11 4 10 9 9 9 9 10 10 9 6 5 2 5 7 9 10 11 11 12 13 12 3 2 5 3 2 3 1 2 1 3 1 2 3 3 3 0 2 3 5 4 4 3
15 14 13 14 11 12 9 9 10 10 10 9 9 9 7 4 3 6 9 10 10 11 12 10 11 1 5 3 2 2 2 3 3 4 3 2 3 6 4 3 7 3 5 3 2 5 1
13 14 15 14 16 12 11 5 12 11 11 10 9 9 8 6 3 4 8 10 10 10 11 9 2 2 7 3 1 1 2 2 2 3 5 3 6 4 5 6 5 6 3 4 9 7 3
12 13 13 15 14 15 12 9 12 8 11 11 10 9 9 7 5 4 8 10 8 8 1 0 1 3 1 3 2 3 2 4 4 3 5 7 6 4 4 4 6 6 4 4 5 3 3
9 11 13 13 14 14 13 13 10 8 10 12 10 10 9 8 5 1 4 3 3 3 1 8 4 2 2 1 1 1 2 4 3 7 4 3 4 8 13 9 4 5 4 5 4 3 4
9 9 10 13 14 14 12 12 13 13 10 11 11 11 10 8 5 2 3 2 2 1 6 7 3 4 3 4 3 3 4 5 3 4 5 5 7 10 4 3 3 2 3 6 6 4 5
6 7 8 9 11 13 13 13 12 12 13 9 10 10 10 9 6 2 2 5 3 2 1 7 6 6 7 9 7 9 10 5 5 6 8 9 5 4 8 4 5 5 7 6 8 4 3
9 10 6 9 7 10 12 13 12 11 11 13 11 10 9 11 3 4 4 4 3 1 2 7 6 7 5 8 6 5 8 7 3 12 7 7 4 6 5 5 9 6 8 6 5 2 5
12 9 8 5 9 9 9 10 12 10 9 10 12 10 8 15 5 4 1 3 5 2 4 2 3 1 3 9 4 1 2 4 8 9 8 9 8 7 6 8 8 7 4 6 2 3 3
13 12 13 8 6 8 7 7 10 12 9 8 9 10 10 9 1 0 1 1 2 6 10 3 2 3 5 2 3 2 3 3 4 6 2 4 0 6 7 2 6 7 6 6 4 3 5
13 11 12 11 8 6 7 9 11 10 12 8 8 9 7 2 3 6 6 6 1 6 3 5 5 5 4 4 3 3 6 7 9 7 12 2 5 3 4 6 2 4 7 3 5 1 11
13 12 11 10 11 9 8 7 8 10 10 11 8 12 5 4 3 9 3 4 5 7 7 4 2 5 5 6 4 6 7 6 8 2 3 9 8 11 7 10 9 8 9 9 8 5 6
15 11 10 9 10 10 9 8 6 7 9 9 10 3 4 4 6 7 6 7 9 7 8 9 4 2 5 4 5 3 6 6 10 12 11 7 7 2 2 3 10 6 7 4 2 3 2
15 13 11 8 6 6 8 9 7 7 6 7 3 3 4 6 10 8 8 14 11 11 7 6 15 10 10 8 8 8 9 6 7 15 3 5 3 1 1 3 2 7 8 3 2 3 6
14 14 11 12 8 8 7 9 10 9 5 4 2 4 5 11 9 7 12 8 8 5 8 10 15 11 9 10 11 8 9 5 6 6 17 4 4 2 3 8 12 4 5 3 4 6 6
15 15 13 13 10 9 11 10 9 8 5 2 2 5 3 11 10 5 16 9 5 5 3 5 4 13 11 9 9 9 17 11 9 9 14 10 4 6 10 1 2 2 2 10 6 6 6
15 15 15 14 12 11 11 10 8 11 10 3 3 4 5 9 10 14 14 23 21 8 13 7 8 8 6 13 8 12 9 6 10 12 14 11 5 1 5 3 4 5 7 10 3 4 19
19 18 17 15 15 14 13 11 10 8 13 5 2 4 4 3 9 13 20 21 22 14 14 18 9 6 5 10 13 6 8 6 12 11 6 9 5 11 16 5 7 6 7 12 14 8 13
23 20 19 17 18 16 14 14 10 11 14 5 4 6 4 5 13 16 15 6 23 22 17 19 19 22 21 18 11 18 8 4 3 6 7 10 9 7 19 15 5 7 8 18 23 33 14
23 24 21 20 18 17 16 15 16 10 6 6 4 3 3 6 8 9 21 22 25 13 11 14 22 24 26 23 22 22 19 11 12 4 7 3 9 12 26 25 17 17 9 21 28 28 25
23 24 23 22 20 17 18 16 15 15 11 3 2 3 3 8 9 6 12 18 24 17 12 17 19 18 22 25 23 21 9 16 11 21 13 12 8 8 15 16 13 8 34 24 16 21 24
25 25 24 22 22 21 19 18 18 17 17 3 3 1 5 11 9 12 15 16 21 18 12 14 18 19 7 9 10 9 7 7 8 10 14 9 14 7 10 4 14 23 19 21 22 26 20
27 25 23 23 22 22 21 20 18 19 19 5 3 4 3 6 12 19 20 14 9 4 4 3 5 3 4 6 7 11 13 12 17 13 15 18 16 9 9 16 13 12 13 10 12 25 26
27 26 25 23 24 23 23 22 20 19 20 10 5 4 3 6 11 17 16 13 12 9 7 6 3 2 5 3 5 7 8 8 10 7 26 17 15 12 7 10 14 24 10 13 8 15 20
27 27 24 23 24 23 23 23 21 19 19 9 4 8 3 4 6 6 9 10 6 6 7 3 5 3 4 4 5 5 5 6 4 7 5 20 17 22 18 12 6 7 3 5 10 11 5
24 24 23 25 23 24 25 24 22 20 20 11 6 9 5 4 3 4 14 6 1 4 9 3 2 1 1 7 3 2 3 5 4 7 5 8 5 11 13 13 17 3 4 12 4 4 1
24 23 22 23 23 24 25 24 21 19 18 14 5 5 6 4 4 2 9 10 8 15 7 4 4 6 9 5 6 4 4 1 4 6 1 7 8 7 10 5 4 2 1 1 4 3 1
Wind_Direction
45 233 205 204 207 204 202 204 201 208 202 233 246 297 328 336 335 342 354 354 354 347 348 346 342 333 358 20 267 55 36 23 326 8 50 90 63 101 117 122 65 80 153 173 225 281 187
52 38 22 225 212 210 212 216 221 211 204 208 226 220 287 319 329 334 337 343 347 342 344 345 345 332 23 289 344 56 52 27 25 46 39 48 136 142 102 96 105 127 99 282 195 237 246
42 34 22 21 325 211 216 223 226 230 222 197 205 223 246 286 323 327 329 331 333 335 335 336 341 356 29 230 346 28 47 40 14 359 113 33 114 84 107 80 128 80 349 340 226 205 230
36 29 20 16 23 16 225 223 233 226 233 231 202 211 217 237 304 322 318 317 320 323 323 327 326 354 245 335 332 26 25 17 36 21 79 27 64 100 77 128 19 47 50 13 297 144 249
33 33 25 23 22 20 23 322 235 229 231 229 228 214 215 206 235 307 309 306 305 309 305 306 15 67 271 324 72 298 80 144 58 26 23 59 62 80 40 91 22 5 233 208 313 204 132
22 25 27 27 25 23 23 9 19 277 234 232 219 222 218 213 202 270 299 294 292 315 359 113 39 24 231 219 159 128 44 96 87 73 36 41 49 75 36 100 214 200 215 239 237 211 178
20 7 10 20 24 25 20 20 12 2 346 245 228 218 219 209 212 224 352 16 15 314 350 195 193 218 107 46 34 49 120 90 72 55 143 12 103 205 202 202 149 146 181 217 240 225 188
33 25 2 353 6 15 21 19 17 13 349 3 236 224 209 201 188 153 88 210 216 202 306 228 225 268 178 169 99 241 126 133 137 165 116 44 235 231 171 168 178 159 200 250 283 248 182
322 344 351 354 350 354 0 11 14 15 11 359 358 236 204 184 148 147 191 227 349 346 236 286 195 187 192 145 204 200 147 142 147 143 193 173 208 129 156 161 179 222 202 220 226 352 259
314 315 308 320 339 341 348 356 6 8 8 10 3 348 195 121 110 157 236 239 244 14 14 261 227 252 128 134 242 173 175 141 179 191 168 234 243 146 168 192 162 239 208 197 225 140 243
293 290 297 305 327 331 343 347 356 2 9 2 5 349 203 161 135 180 254 209 181 58 269 270 185 38 172 166 140 256 221 90 174 176 141 235 178 176 181 196 162 226 127 174 143 173 6
299 292 291 274 284 299 323 337 340 344 346 355 353 357 327 179 167 144 327 17 152 92 228 291 130 145 126 84 59 71 123 47 156 136 258 241 242 172 201 96 156 145 80 55 60 102 267
305 299 285 289 257 244 284 315 322 333 339 331 333 331 332 190 202 149 126 67 112 181 146 216 184 167 149 148 100 122 158 182 170 147 221 149 219 200 157 99 66 118 100 311 326 13 240
296 309 304 290 280 273 244 233 288 315 328 330 313 322 260 233 167 143 127 121 195 201 222 96 109 104 183 154 194 158 137 192 242 159 125 187 265 168 189 189 167 194 165 168 213 207 266
281 287 295 300 289 280 263 266 230 288 314 333 335 313 258 212 177 180 183 200 202 199 187 148 94 113 208 201 159 136 200 218 200 185 189 170 260 212 170 150 149 197 205 182 16 118 359
274 273 278 271 300 290 273 268 252 241 292 340 330 284 239 181 164 214 204 219 224 168 163 163 203 177 194 184 169 184 172 207 214 192 182 206 275 229 197 115 51 158 167 80 358 237 257
263 271 273 271 252 271 295 273 239 226 262 342 323 257 248 175 159 220 227 225 232 219 156 174 207 189 212 172 183 192 208 240 190 192 194 163 174 237 132 208 170 149 197 147 139 163 199
261 255 262 265 265 268 267 273 254 202 214 63 255 238 280 156 194 209 231 198 174 176 192 241 219 204 193 173 187 199 213 211 175 150 170 211 169 207 205 227 184 40 248 171 156 221 238
254 255 253 256 256 258 261 267 274 229 204 128 251 251 298 192 219 218 228 238 237 190 196 212 208 214 189 202 220 206 211 193 172 163 174 163 205 349 328 8 7 217 199 205 138 71 240
251 252 253 250 256 251 250 251 236 268 213 123 269 269 223 220 262 240 219 234 238 220 221 212 253 176 197 211 203 215 222 220 187 199 181 152 163 197 230 173 140 195 210 197 200 223 248
257 250 250 249 255 256 254 243 234 249 242 136 199 240 218 195 237 247 239 262 238 235 218 208 217 231 227 214 203 225 198 211 192 220 181 146 221 245 258 259 220 199 203 201 208 229 207
249 248 243 247 244 251 249 246 224 223 261 202 203 196 279 261 296 247 235 249 244 257 245 234 233 210 221 232 222 228 219 200 218 164 175 156 234 232 257 250 240 249 224 218 218 232 232
249 247 246 240 244 243 243 246 247 238 205 220 167 299 310 244 246 255 244 238 244 250 222 236 255 249 239 228 234 244 229 212 208 206 200 178 192 197 241 247 239 255 239 236 221 227 220
247 246 239 240 241 232 238 235 235 236 215 195 164 125 225 239 239 234 259 243 250 259 259 253 224 240 266 291 323 263 218 222 225 217 203 176 192 209 233 178 223 238 255 230 226 235 221
245 241 237 243 238 240 242 238 234 234 236 209 166 187 242 255 234 254 252 259 268 236 248 268 286 315 171 140 233 240 227 236 229 215 205 209 211 212 225 237 257 290 252 168 175 247 229
246 243 240 235 242 236 236 235 237 234 236 232 194 148 195 273 229 241 244 230 242 241 243 216 234 164 236 217 167 227 218 190 199 213 211 202 218 218 149 225 227 240 217 173 134 250 248
240 235 233 239 239 234 231 234 233 235 237 233 250 167 173 261 225 204 210 221 188 191 234 244 192 178 172 219 195 215 230 160 198 200 176 205 210 227 222 235 255 243 193 134 153 238 352
232 233 237 238 239 231 230 230 232 231 240 238 240 179 165 229 246 267 242 210 197 214 212 186 101 219 178 218 188 191 275 213 168 167 178 186 200 211 219 226 235 122 66 186 249 339 305
232 233 232 236 234 236 228 227 228 228 235 231 243 187 183 206 262 196 275 281 264 246 204 199 212 192 200 201 194 176 226 274 203 243 307 207 192 194 192 209 181 227 342 174 188 173 358